Location: Escalona
(41.1668°N, 4.1227°W)
Time: 12:59:23
(UTC+00:00)

Daily predictions for brighter satellites

Satellite Brightness Start Highest point End
(mag) Time Altitude Azimuth Time Altitude Azimuth Time Altitude Azimuth
GEOS 3 Rocket 4.1 20:18:15 10° ESE 20:23:09 51° NE 20:28:07 10° NNW
ATLAS 2AS CENTAUR R/B 2.8 20:21:53 10° NNW 20:28:58 73° NE 20:35:34 10° SE
S3M 4.5 20:23:44 10° SSW 20:29:51 66° W 20:35:58 10° N
Resurs 1-3 3.9 20:25:48 10° S 20:30:10 73° WSW 20:34:34 10° NNW
USA 186 4.0 20:28:33 10° SSW 20:31:01 24° W 20:33:36 10° NW
USA 32 4.4 20:28:20 10° SSE 20:33:18 47° E 20:38:18 10° NNE
Cosmos 1980 Rocket 4.4 20:31:30 10° NNE 20:33:37 12° NE 20:35:43 10° ENE
PSLV R/B 4.0 20:29:43 10° NNE 20:33:50 60° E 20:37:58 10° S
Cosmos 1697 Rocket 4.3 20:30:16 10° N 20:34:30 21° NE 20:38:42 10° E
TSX-5 4.3 20:31:48 10° S 20:36:01 60° ESE 20:41:30 10° NNE
SPOT 1/Viking Rocket 3.7 20:34:47 10° SSE 20:39:49 60° ENE 20:44:55 10° N
Cosmos 1025 Rocket 3.3 20:38:41 10° SSW 20:42:56 73° W 20:47:15 10° N
IRS-1A Rocket 4.5 20:37:06 10° SSE 20:42:58 72° ENE 20:48:50 10° N
X-37B 1.8 20:40:38 10° WNW 20:43:16 35° N 20:45:53 10° ENE
NOSS 2-1 (E) 4.3 20:43:46 10° NNW 20:48:39 76° NE 20:55:09 12° SE
SPOT 5 4.1 20:49:45 12° ESE 20:52:51 23° ENE 20:56:15 10° NNE
Cosmos 1703 4.1 20:51:13 12° SSE 20:54:17 31° E 20:57:42 10° NNE
Cosmos 1452 Rocket 3.5 20:51:30 10° S 20:56:41 67° ESE 21:01:54 10° NNE
Cosmos 1833 Rocket 3.0 20:51:32 10° S 20:56:51 46° ESE 21:02:11 10° NE
Delta 2 Rocket 3.7 20:55:05 10° WSW 20:58:03 29° S 20:59:56 17° ESE
RESURS DK-1 3.3 20:54:33 10° N 20:58:24 36° ENE 21:01:19 15° ESE
Terra 3.4 20:56:28 11° ESE 20:59:36 21° ENE 21:03:05 10° NNE
BREEZE-M DEB (TANK) 4.3 20:59:50 10° WSW 21:01:22 15° SSW 21:03:21 10° S
Cosmos 1110 Rocket 4.3 20:57:44 10° S 21:02:44 47° ESE 21:07:47 10° NNE
Helios 1A Rocket 4.3 21:01:06 14° ESE 21:03:36 25° ENE 21:06:58 10° NNE
CZ-4B R/B 1.2 21:01:01 10° N 21:03:54 73° WNW 21:06:46 10° SSW
ERS-1 Rocket 4.0 21:02:33 15° ESE 21:06:02 31° ENE 21:10:25 10° N
Cosmos 1455 Rocket 4.3 21:02:03 10° NNW 21:06:05 39° W 21:10:06 10° SSW
Resurs 01 Rocket 2.1 21:01:56 10° S 21:06:19 61° W 21:10:45 10° NNW
Cosmos 2228 3.8 21:09:03 10° N 21:12:58 35° ENE 21:15:15 20° SE
Cosmos 2184 Rocket 4.1 21:11:00 10° N 21:17:07 60° E 21:21:54 17° SSE
Lacrosse 5 2.6 21:13:35 10° NW 21:18:26 44° SW 21:22:05 17° SSE
IRAS Rocket 4.3 21:15:47 10° NNE 21:21:23 87° WNW 21:26:56 10° SSW
Cosmos 1271 Rocket 3.7 21:21:33 10° NNW 21:25:20 44° W 21:28:52 11° SSW
Cosmos 2082 Rocket 2.8 21:27:22 19° SSE 21:30:42 36° ESE 21:35:51 10° NE
USA 245 3.3 21:30:03 21° S 21:32:49 85° WSW 21:36:20 10° NNW
H-2A R/B 4.2 21:29:13 10° N 21:33:01 28° WNW 21:36:49 10° SW
Cosmos 1536 Rocket 3.9 21:28:57 10° SSW 21:33:14 64° W 21:37:34 10° N
Cosmos 1455 3.6 21:30:49 10° NNW 21:34:19 35° W 21:37:44 11° SSW
CARTOSAT-1 4.0 21:33:48 17° S 21:37:00 59° W 21:41:16 10° NNW
ARIANE 5 R/B 3.6 21:35:43 23° ESE 21:37:36 32° ENE 21:41:33 10° N
USA 267 3.8 21:34:04 10° ENE 21:39:51 33° SE 21:45:16 11° S
Meteor 1-21 Rocket 4.1 21:36:53 15° S 21:41:31 76° E 21:47:12 10° NNE
Cosmos 1606 Rocket 3.9 21:37:32 10° N 21:41:44 47° E 21:43:24 31° SE
Tiangong 3.4 21:40:13 10° WSW 21:41:54 14° SSW 21:41:54 14° SSW
Cosmos 192 4.4 21:43:00 23° S 21:45:56 57° ESE 21:50:45 10° NNE
Cosmos 1741 Rocket 4.1 21:41:49 10° NNW 21:47:09 73° WSW 21:50:18 25° S
SPOT 3 Rocket 4.0 21:46:11 18° S 21:49:55 58° W 21:55:05 10° NNW
Ariane Rocket 4.3 21:46:36 10° SSW 21:51:10 35° W 21:55:49 10° NNW
Cosmos 2074 Rocket 4.4 21:53:32 10° NNW 21:59:43 61° W 22:04:20 18° SSW
Cosmos 2327 Rocket 4.5 21:53:42 10° N 22:00:02 77° E 22:03:23 29° SSE
Cosmos 1892 3.5 22:02:06 32° E 22:02:06 32° E 22:05:27 10° NNE
Cosmos 1726 Rocket 3.5 22:00:10 10° N 22:04:28 65° E 22:05:41 44° SE
Nadezhda 1 Rocket 4.1 22:03:16 16° SSW 22:08:13 73° W 22:14:17 10° N
Meteor 2-1 Rocket 4.2 22:09:31 10° NNW 22:15:02 75° W 22:17:41 32° S
Cosmos 1992 Rocket 4.5 22:15:19 37° SE 22:16:09 40° ESE 22:21:01 10° NE
Cosmos 1932 4.4 22:13:39 23° SSW 22:17:37 65° ESE 22:23:51 10° NE
SL-8 R/B 3.7 22:13:16 10° WNW 22:18:04 70° SSW 22:19:18 48° SSE
SL-16 R/B 4.1 22:14:10 10° N 22:18:17 20° NE 22:21:23 13° E
Cosmos 1980 Rocket 2.3 22:13:03 10° NNW 22:18:45 68° ENE 22:20:52 38° SE
Cosmos 1697 Rocket 2.9 22:13:22 10° NNW 22:18:54 61° WSW 22:21:16 34° S
X-37B 1.2 22:16:07 10° WNW 22:18:13 45° WNW 22:18:13 45° WNW
ATLAS 2AS CENTAUR R/B 4.4 22:14:10 10° WNW 22:19:04 21° WSW 22:23:22 11° SSW
Spot 2 Rocket 4.3 22:18:58 24° SSW 22:21:36 44° W 22:26:29 10° NNW
Cosmos 2369 3.7 22:16:37 10° NNW 22:22:23 81° ENE 22:24:30 41° SSE
TIMED 4.4 22:21:54 51° S 22:22:54 76° ESE 22:27:16 10° NNE
COSMOS 2406 3.7 22:19:08 10° SW 22:24:48 59° WNW 22:30:30 10° NNE
ATLAS 5 CENTAUR R/B 1.5 22:29:23 50° ENE 22:29:23 50° ENE 22:32:37 10° NE
SPOT 5 4.0 22:28:58 23° SW 22:30:47 31° W 22:34:38 10° NW
In-Cosmos 22 Rocket 4.2 22:30:23 44° SSE 22:31:55 61° E 22:37:17 10° NNE
Cosmos 1869 4.2 22:31:40 10° N 22:35:09 35° ENE 22:35:09 35° ENE
RESURS DK-1 4.3 22:33:11 10° WNW 22:36:06 19° WSW 22:37:10 17° SW
Cosmos 2084 Rocket 3.2 22:32:22 10° NW 22:36:19 67° WSW 22:36:30 66° SW
Terra 2.6 22:35:21 31° SW 22:37:02 43° W 22:41:35 10° NNW
Meteor 1-27 4.4 22:35:44 10° N 22:41:13 57° ENE 22:42:35 44° SE
Cosmos 1892 Rocket 4.3 22:41:21 32° SW 22:42:57 48° W 22:47:13 10° N
ASTEX 1 3.3 22:39:32 10° N 22:44:33 87° WNW 22:45:50 52° S
ERS-1 Rocket 4.3 22:42:32 22° SW 22:44:45 31° W 22:49:11 10° NW
Cosmos 1825 2.4 22:49:40 60° NE 22:49:40 60° NE 22:52:54 10° NNE
ADEOS Rocket 4.4 22:45:43 24° ESE 22:49:13 36° ENE 22:56:04 10° N
Cosmos 1408 3.4 22:50:12 41° W 22:50:17 41° W 22:53:35 10° N
SL-8 Rocket 3.9 22:44:45 10° N 22:51:00 90° NW 22:53:01 46° S
Cosmos 2344 4.4 22:41:56 10° NW 22:51:22 77° WSW 22:58:13 33° SSE
Cosmos 2058 Rocket 3.2 22:47:36 10° NNW 22:52:00 66° W 22:52:35 58° SW
Cosmos 2322 Rocket 3.7 22:49:14 10° N 22:53:59 26° NE 22:56:24 20° E
Cosmos 1626 Rocket 3.4 22:54:44 72° E 22:54:44 72° E 22:59:04 10° NNE
USA 276 4.3 23:00:03 10° NW 23:02:29 21° NNE 23:02:50 21° NNE
Cosmos 2278 3.6 22:59:20 10° NNW 23:05:06 88° WSW 23:06:17 58° SSE
Cosmos 968 Rocket 4.1 23:00:39 10° NNW 23:05:36 45° WSW 23:06:36 40° SW
Cosmos 2366 rocket 4.0 23:03:46 10° N 23:10:07 78° W 23:12:00 48° S
SJ 16-02 2.6 23:08:04 10° N 23:11:59 30° ENE 23:12:19 29° ENE
Cosmos 2218 Rocket 4.1 23:07:19 10° NNW 23:13:43 73° W 23:15:36 47° SSW
ARIANE 5 R/B 4.3 23:13:16 22° WSW 23:14:04 23° W 23:17:36 10° NW
Cosmos 2082 Rocket 3.7 23:09:37 10° WSW 23:14:45 34° WNW 23:19:55 10° N
Meteor 2-20 4.5 23:13:52 53° SE 23:15:02 63° E 23:21:03 10° NNE
Cosmos 1867 3.8 23:11:17 10° NW 23:16:36 54° WSW 23:17:08 52° SW
GP-B 4.2 23:16:11 10° NNW 23:20:15 36° W 23:21:00 34° WSW
H-2A R/B 4.1 23:17:34 10° NNE 23:20:55 45° ENE 23:20:55 45° ENE
USA 267 3.4 23:16:38 10° NE 23:23:08 71° NW 23:29:38 10° WSW
Cosmos 2058 4.1 23:26:08 33° ENE 23:26:08 33° ENE 23:29:09 10° NNE
Spot 4 3.7 23:27:39 83° SSE 23:27:50 88° ENE 23:32:38 10° NNW
Cosmos 1606 3.8 23:25:21 10° N 23:28:16 37° NE 23:28:16 37° NE
Cosmos 2360 Rocket 3.5 23:24:55 10° N 23:29:59 32° ENE 23:32:00 25° E
SL-08 R/B 4.5 23:30:08 10° N 23:36:38 86° E 23:38:04 58° SSE
Cosmos 44 4.5 23:41:21 29° ENE 23:41:21 29° ENE 23:44:01 10° NE
Meteor 2-20 Rocket 4.3 23:42:26 62° SSE 23:43:26 76° E 23:49:33 10° N
Cosmos 1633 4.1 23:45:56 33° NW 23:45:56 33° NW 23:48:17 10° N
Cosmos 1758 Rocket 3.8 23:45:44 62° WNW 23:45:44 62° WNW 23:49:51 10° N
Cosmos 2237 4.4 23:40:10 10° NNW 23:45:52 64° ENE 23:46:53 54° ESE
